Powrót do katalogu

STARLINK-32447

AktywnyŁącznośćVLEO
NORAD 61261·PAYLOAD·🇺🇸 United States

Wystrzelony Sep 25, 2024 z Vandenberg Space Force Base

Loading…

Następne Przeloty (najbliższe 24 godziny)

TLE

ŚwieżeSource: CelesTrak SupGP

Epoka: Sep 14, 2026, 20:46 UTC

1 61261C 24175U   26257.86576389  .00025036  00000+0  74006-3 0  2571
2 61261  53.1589  32.1854 0001229  82.2017 208.8964 15.34362007    15

Śledź STARLINK-32447 w czasie rzeczywistym z AllMySat

Download on the App Store